Simultaneous Nadir Overpasses (SNOs) Predictions

Prediction of SNOs between AQUA and METOP-B Satellite Orbit:

Table of predicted SNOs for the next 14.0 days since TLE Epoch: 3/15/2013
Index Date (AQUA) Time (AQUA) Lat,Lon (AQUA) SZA (AQUA ) Date (METOP-B) Time (METOP-B) Lat,Lon (METOP-B) SZA (METOP-B ) Distance(km) Time Diff (sec)
1 03/16/2013 16:39:08 -73.21, 105.70 105.28 03/16/2013 16:38:00 -73.13, 103.53 105.26 70.71 68
2 03/16/2013 17:28:46 73.75, -87.79 75.28 03/16/2013 17:28:27 73.75, -87.71 75.29 2.69 19
3 03/16/2013 18:18:12 -73.78, 79.78 104.70 03/16/2013 18:19:08 -73.80, 79.73 104.68 3.21 56
4 03/19/2013 12:13:29 -73.39, 171.77 106.21 03/19/2013 12:12:19 -73.32, 170.37 106.21 45.33 70
5 03/19/2013 13:03:03 73.72, -21.30 74.13 03/19/2013 13:02:50 73.74, -21.33 74.16 2.86 13
6 03/19/2013 13:52:30 -73.80, 146.17 105.80 03/19/2013 13:53:31 -73.80, 146.13 105.81 1.33 61
7 03/22/2013 07:47:49 -73.60,-122.24 107.11 03/22/2013 07:46:36 -73.56,-122.68 107.11 14.41 73
8 03/22/2013 08:37:19 73.72, 45.13 73.02 03/22/2013 08:37:12 73.72, 45.04 73.03 2.80 7
9 03/22/2013 09:26:46 -73.80,-147.40 106.92 03/22/2013 09:27:53 -73.79,-147.48 106.93 2.89 67
10 03/25/2013 03:22:07 -73.69, -55.99 108.13 03/25/2013 03:20:56 -73.70, -55.95 108.11 1.72 71
11 03/25/2013 04:11:36 73.76, 111.48 71.95 03/25/2013 04:11:34 73.75, 111.52 71.94 1.67 2
12 03/25/2013 05:01:03 -73.84, -81.04 107.99 03/25/2013 05:02:15 -73.83, -80.99 108.02 2.01 72
13 03/27/2013 22:56:23 -73.70, 10.41 109.22 03/27/2013 22:55:19 -73.68, 10.42 109.23 2.71 64
14 03/27/2013 23:45:51 73.73, 177.99 70.80 03/27/2013 23:45:57 73.73, 177.87 70.80 3.70 6




NCC Satellite Simultaneous Nadir Overpasses (SNOs) Prediction Service
